Probability
77 77 77 74 77 68 65 58 52 29 29 45 52 61 58 55 19 23 35 3 0 0 0 0 0 0 0 0 0 3 3 0 0 3 3 3 3 3
77 77 74 74 74 77 68 58 61 45 35 42 48 48 42 26 23 29 39 16 3 0 0 0 0 0 0 0 0 0 0 0 0 0 0 0 0 0
77 74 61 61 58 58 58 52 58 52 42 35 48 45 45 39 26 39 42 29 16 3 3 0 0 0 0 0 0 0 0 0 0 0 0 0 0 0
65 58 55 52 55 55 52 48 48 52 48 39 42 45 48 45 35 45 35 29 29 10 3 0 0 0 0 0 0 0 0 0 0 0 0 0 0 0
55 55 58 55 55 48 42 39 39 29 48 45 42 45 42 39 35 35 26 32 23 13 0 0 0 0 0 0 0 0 0 0 0 0 0 0 0 0
52 48 48 45 42 39 32 39 29 32 32 32 29 32 42 39 35 35 26 29 26 13 13 0 0 0 0 0 0 0 0 0 0 0 0 0 0 0
55 48 45 42 32 35 19 35 29 32 29 29 23 23 29 29 32 26 19 29 29 23 16 13 6 0 0 0 0 0 0 0 0 0 0 0 0 0
52 48 42 42 32 23 13 3 16 29 32 23 16 16 19 16 23 16 13 13 13 16 16 13 13 6 13 6 0 0 0 0 0 0 0 0 0 0
52 42 35 32 32 35 13 6 3 3 3 23 19 23 19 13 19 16 13 13 10 16 16 13 10 19 16 10 0 0 0 0 0 0 0 0 0 0
42 42 35 35 23 29 29 26 23 19 13 6 23 32 29 19 23 16 10 10 6 10 10 10 10 10 10 10 3 0 0 0 0 0 0 0 0 0
35 35 32 29 23 16 29 29 23 23 13 10 10 10 3 3 6 10 10 6 6 6 10 10 13 13 10 10 6 0 0 0 0 0 0 0 0 0
29 29 19 19 13 0 13 19 29 26 23 10 6 3 0 0 0 3 6 6 6 6 13 13 6 10 10 10 10 3 3 0 0 0 0 0 0 0
16 19 19 3 0 0 0 10 6 6 13 16 19 19 19 13 10 3 6 6 6 3 3 10 13 13 10 6 10 10 6 3 0 0 0 0 0 0
16 16 6 3 0 0 0 0 0 0 6 10 13 13 19 19 13 10 6 6 10 6 3 6 6 6 6 6 6 10 10 6 6 3 0 0 0 0
13 10 3 0 0 0 0 0 0 3 6 10 10 13 13 19 19 13 6 3 3 3 3 10 6 6 6 3 3 3 3 10 10 6 6 6 0 0
3 0 0 0 0 0 0 0 0 3 10 10 10 6 10 10 10 13 3 3 3 3 3 3 10 6 3 3 3 3 3 3 10 10 6 6 6 6
3 3 3 0 0 3 3 3 10 10 10 6 6 6 6 6 6 6 3 3 3 3 3 3 3 6 10 3 3 3 3 3 3 10 10 6 6 6
0 6 3 3 3 3 3 3 10 10 6 6 10 6 6 10 10 6 3 3 3 3 3 3 6 6 3 3 3 3 3 3 3 3 6 6 6 3
0 3 6 6 6 3 6 3 3 6 10 10 10 6 6 6 10 10 3 3 3 3 6 6 3 3 3 0 3 0 0 0 0 0 3 3 3 3
0 3 3 6 6 6 6 6 6 6 6 10 10 10 10 10 6 3 3 6 3 3 0 0 3 0 0 0 0 0 0 0 0 0 0 0 3 3
3 3 3 3 6 6 6 6 6 6 6 6 6 6 6 10 3 3 0 0 0 0 0 0 0 0 0 0 0 0 0 0 0 0 0 0 0 0
3 3 3 3 6 6 6 10 6 6 6 6 6 6 6 6 3 3 3 3 3 0 3 3 3 0 0 0 0 0 0 3 0 0 0 0 0 0
0 3 3 3 3 6 6 6 6 6 3 3 0 3 0 3 3 3 3 3 3 3 3 3 3 3 3 3 3 3 3 3 3 0 0 0 0 0
Height
5880 5880 5880 5879 5879 5879 5878 5878 5878 5877 5877 5876 5876 5875 5874 5874 5873 5873 5872 5871 5870 5870 5869 5869 5868 5868 5867 5866 5866 5865 5864 5864 5863 5862 5862 5861 5860 5860
5876 5876 5875 5875 5874 5874 5873 5872 5872 5872 5871 5871 5870 5870 5869 5869 5868 5867 5866 5866 5865 5864 5863 5863 5862 5862 5861 5861 5860 5859 5859 5858 5857 5857 5856 5855 5855 5854
5871 5871 5870 5869 5869 5868 5867 5867 5866 5866 5866 5866 5865 5864 5863 5863 5862 5861 5861 5860 5859 5858 5857 5857 5856 5855 5855 5854 5854 5853 5852 5852 5851 5851 5850 5849 5849 5848
5865 5865 5864 5863 5863 5862 5861 5860 5860 5860 5860 5860 5859 5858 5857 5857 5856 5855 5854 5854 5853 5852 5851 5850 5849 5848 5848 5847 5846 5846 5845 5845 5844 5844 5843 5843 5842 5841
5859 5859 5858 5857 5856 5855 5855 5854 5853 5853 5853 5853 5852 5851 5850 5850 5849 5848 5848 5847 5846 5845 5844 5843 5842 5841 5840 5840 5839 5838 5838 5837 5836 5836 5835 5835 5835 5834
5853 5852 5851 5850 5849 5848 5848 5847 5846 5846 5845 5845 5844 5843 5843 5842 5841 5841 5840 5839 5838 5837 5836 5835 5834 5833 5832 5832 5831 5830 5830 5829 5828 5828 5827 5827 5826 5826
5845 5845 5843 5842 5842 5841 5840 5840 5839 5838 5837 5836 5836 5835 5834 5833 5833 5832 5831 5830 5829 5829 5828 5827 5826 5825 5824 5823 5822 5822 5821 5820 5820 5819 5819 5818 5818 5817
5837 5836 5835 5834 5834 5833 5832 5831 5830 5829 5828 5828 5827 5826 5825 5824 5823 5822 5821 5821 5820 5819 5818 5818 5817 5816 5815 5814 5813 5813 5812 5812 5811 5810 5810 5809 5809 5808
5828 5827 5826 5826 5825 5824 5823 5822 5821 5820 5819 5818 5817 5817 5816 5815 5814 5813 5812 5811 5810 5808 5807 5807 5806 5805 5804 5804 5803 5803 5802 5801 5801 5801 5800 5800 5799 5799
5819 5818 5817 5816 5815 5814 5813 5812 5811 5810 5808 5807 5807 5807 5805 5804 5803 5802 5801 5800 5799 5797 5796 5796 5796 5795 5794 5793 5793 5792 5791 5791 5791 5790 5790 5790 5790 5789
5809 5808 5807 5807 5806 5804 5803 5802 5801 5799 5798 5797 5796 5795 5794 5793 5792 5791 5790 5789 5788 5787 5785 5784 5784 5784 5783 5782 5781 5781 5781 5780 5780 5780 5780 5779 5779 5779
5800 5799 5798 5797 5796 5794 5793 5792 5790 5789 5788 5786 5785 5784 5783 5782 5780 5779 5778 5777 5776 5776 5774 5773 5772 5772 5772 5771 5771 5770 5770 5769 5769 5769 5769 5768 5768 5768
5790 5790 5788 5787 5785 5784 5783 5781 5780 5779 5777 5776 5774 5773 5771 5770 5768 5767 5766 5764 5763 5763 5762 5761 5760 5759 5759 5759 5759 5759 5758 5758 5757 5757 5757 5757 5757 5757
5781 5779 5778 5777 5776 5774 5772 5770 5769 5767 5766 5764 5763 5761 5760 5758 5756 5755 5753 5752 5750 5750 5750 5749 5748 5747 5747 5747 5747 5747 5746 5746 5746 5745 5745 5745 5745 5745
5770 5769 5768 5767 5765 5764 5762 5759 5758 5756 5754 5753 5751 5749 5748 5746 5744 5742 5741 5740 5739 5738 5737 5737 5736 5735 5734 5734 5734 5734 5734 5734 5734 5734 5733 5733 5734 5734
5760 5759 5757 5756 5754 5753 5751 5749 5746 5744 5742 5741 5739 5737 5735 5734 5732 5730 5729 5728 5727 5726 5725 5724 5724 5723 5722 5721 5721 5721 5721 5721 5722 5721 5721 5721 5721 5721
5749 5748 5747 5745 5743 5741 5739 5737 5735 5733 5731 5729 5727 5726 5724 5722 5720 5719 5717 5716 5714 5714 5713 5713 5711 5710 5710 5709 5709 5709 5709 5709 5709 5708 5709 5709 5710 5710
5738 5736 5735 5733 5732 5730 5728 5726 5724 5722 5720 5718 5716 5714 5712 5710 5708 5707 5705 5704 5702 5701 5700 5700 5699 5698 5698 5697 5696 5696 5695 5695 5696 5696 5696 5697 5697 5698
5727 5725 5724 5722 5720 5719 5717 5715 5713 5711 5709 5707 5705 5703 5700 5698 5696 5695 5693 5691 5690 5689 5688 5687 5686 5685 5685 5685 5685 5684 5683 5683 5683 5683 5684 5685 5685 5686
5716 5714 5713 5711 5709 5707 5706 5704 5702 5700 5697 5695 5693 5691 5689 5687 5685 5683 5681 5679 5678 5677 5676 5675 5674 5673 5672 5672 5672 5672 5671 5671 5671 5671 5672 5672 5673 5674
5705 5704 5702 5700 5698 5696 5694 5692 5690 5688 5686 5684 5682 5680 5678 5675 5673 5671 5669 5667 5666 5665 5664 5663 5662 5661 5660 5660 5660 5660 5660 5659 5659 5659 5660 5660 5661 5662
5695 5693 5691 5689 5687 5685 5683 5681 5679 5677 5675 5673 5671 5669 5666 5663 5661 5660 5658 5656 5655 5653 5652 5651 5651 5650 5649 5649 5649 5649 5649 5649 5648 5648 5648 5649 5650 5651
5684 5682 5681 5679 5677 5675 5673 5671 5669 5667 5665 5662 5660 5658 5655 5653 5651 5649 5647 5645 5644 5642 5641 5641 5641 5640 5639 5639 5638 5638 5638 5638 5637 5638 5638 5639 5639 5640
Wind_Speed
18 18 19 20 20 20 20 19 19 19 20 20 20 20 20 20 19 20 20 20 20 20 21 21 21 20 20 20 20 20 20 19 19 19 19 19 20 20
20 21 21 21 21 21 21 20 20 21 20 21 22 22 22 21 21 21 22 22 21 22 22 22 22 22 23 22 22 21 22 21 21 22 21 21 21 21
22 23 23 23 23 23 23 23 23 22 22 22 23 23 23 22 22 22 23 22 22 23 23 24 24 25 24 24 24 24 24 24 23 23 24 24 23 23
24 25 25 25 25 24 25 24 24 24 24 23 24 24 25 24 24 24 24 24 24 24 25 25 25 26 26 26 26 26 26 26 26 25 25 25 25 25
26 27 27 27 26 26 26 26 25 25 25 25 26 26 27 26 25 25 25 26 26 26 26 26 27 27 27 27 27 27 27 27 27 27 27 27 27 26
28 29 29 28 28 29 27 27 27 28 28 28 28 28 29 28 28 27 28 28 28 28 28 27 27 28 28 28 27 27 28 28 28 28 28 28 28 28
30 31 31 30 30 29 29 29 30 31 30 30 30 30 30 30 30 30 30 30 30 30 30 29 30 29 29 29 29 29 29 29 28 28 29 29 29 29
32 33 33 33 32 32 32 32 32 32 32 33 33 33 32 33 33 33 32 32 32 33 33 32 32 31 31 31 31 31 31 30 30 30 29 30 30 31
34 35 35 35 34 34 34 35 35 35 35 35 34 34 35 35 35 35 35 35 35 35 35 34 34 33 32 32 32 32 32 32 32 31 31 31 31 31
36 36 37 37 36 35 36 36 37 37 36 37 36 36 37 37 37 37 37 37 37 37 37 36 35 35 34 33 33 33 33 33 33 33 32 32 32 32
37 37 37 37 37 36 37 37 38 38 37 37 37 38 39 39 39 39 39 40 40 39 39 39 38 37 36 35 34 34 34 34 34 33 33 33 33 34
36 36 36 36 36 37 37 36 37 37 38 39 39 39 40 40 40 40 41 41 41 41 40 41 40 39 37 36 36 35 35 35 35 35 34 35 35 36
36 35 36 36 36 36 36 37 37 38 39 39 39 39 40 40 40 41 41 41 42 41 40 40 40 39 38 37 36 36 36 36 36 36 35 36 37 37
37 36 36 36 37 37 37 38 38 39 39 39 39 39 39 39 40 42 42 42 42 41 39 38 38 38 38 38 37 36 36 36 36 36 36 36 37 37
37 36 36 36 37 37 38 39 39 40 40 40 40 40 40 40 40 41 40 40 41 40 39 39 39 39 39 38 38 38 38 37 37 37 37 37 37 37
37 37 37 38 38 38 39 39 39 40 40 40 40 40 40 39 39 39 40 40 39 39 39 39 39 39 39 39 39 38 38 38 37 37 37 37 37 37
37 38 39 39 39 39 39 39 39 38 38 39 39 39 39 39 38 38 39 39 39 38 38 39 38 38 38 38 39 39 39 39 38 38 37 37 36 36
38 38 38 38 38 38 38 38 38 39 39 39 39 40 40 39 39 38 38 38 38 38 38 38 38 38 38 38 39 39 38 38 38 38 37 36 36 36
38 38 38 38 37 37 37 38 38 38 39 39 39 39 38 38 38 38 38 38 38 37 38 38 38 38 37 37 36 37 38 37 37 37 36 36 35 35
36 36 36 37 37 38 38 38 38 39 39 38 38 38 38 38 38 38 38 38 37 37 37 37 37 37 36 36 35 36 36 36 36 36 36 35 34 34
36 36 36 37 37 37 38 39 38 38 37 37 37 37 38 37 37 36 36 36 36 36 35 35 35 35 36 35 34 33 34 34 34 35 35 34 34 34
34 35 35 35 35 36 36 36 36 36 36 36 36 36 36 35 34 34 34 34 34 34 34 33 33 33 34 33 32 32 32 33 33 33 33 34 34 33
33 34 34 34 34 34 34 34 34 35 35 35 34 33 34 34 33 33 33 33 32 31 30 31 31 32 32 31 31 31 31 32 32 32 33 33 33 32
Wind_Direction
281 282 284 285 287 288 286 286 287 286 284 285 286 287 288 287 286 288 289 288 287 285 285 285 286 287 287 287 287 287 287 286 285 285 285 285 284 284
281 283 284 285 286 286 285 285 285 286 283 282 284 285 288 286 285 286 287 287 288 288 286 285 284 284 284 284 285 285 285 286 285 284 283 284 283 283
281 282 284 286 287 285 285 283 283 284 285 285 285 284 285 287 288 288 287 288 287 287 285 284 283 283 282 283 283 283 283 283 284 283 282 281 280 280
282 283 285 285 286 286 286 283 282 284 284 283 285 285 286 286 287 288 287 287 287 285 284 284 283 281 281 281 282 282 282 282 281 280 279 280 280 279
283 284 286 285 283 283 285 284 283 282 283 283 284 285 286 285 286 286 286 286 286 286 285 285 284 282 281 281 282 282 281 281 280 279 278 278 278 279
284 284 285 284 283 284 284 283 283 282 283 283 284 284 284 284 283 283 284 285 285 286 286 285 285 282 281 281 282 281 281 281 281 279 278 278 277 278
283 282 283 286 287 287 285 284 283 282 282 283 284 284 284 283 284 283 283 283 282 284 284 284 284 282 280 279 280 279 279 278 278 278 277 277 278 278
281 282 284 286 288 287 286 284 283 282 281 282 282 283 283 283 284 283 284 284 283 284 284 284 283 282 280 278 278 278 278 277 276 277 277 276 277 277
283 284 284 284 285 286 286 284 284 282 281 282 283 283 282 282 283 283 283 282 282 282 283 283 283 281 282 281 279 277 276 276 276 276 277 276 276 276
283 284 284 284 284 285 284 283 283 284 282 281 281 282 282 282 282 283 282 282 281 281 280 280 280 280 280 280 279 276 275 275 274 273 275 276 275 274
284 283 283 283 285 284 284 283 283 285 285 283 282 282 282 281 281 281 282 281 282 281 280 279 278 278 278 278 277 275 274 274 273 273 273 274 274 273
284 283 283 283 282 283 283 283 283 284 284 284 283 283 283 282 280 279 281 282 281 280 278 277 277 276 275 275 275 275 274 273 273 273 273 273 273 272
283 283 284 283 283 283 283 284 284 284 283 283 283 283 284 282 280 280 280 280 280 280 278 277 276 275 274 274 273 274 273 273 273 273 273 273 273 272
283 283 284 284 284 285 285 285 285 284 284 283 283 283 284 282 281 280 278 278 279 279 277 277 276 275 273 272 272 272 272 273 273 274 274 274 273 273
283 284 285 285 285 284 284 285 285 285 285 284 283 284 285 283 281 280 278 278 279 278 277 277 276 275 274 274 273 272 273 274 275 276 276 276 274 274
283 283 284 285 285 285 285 285 285 285 285 286 286 285 285 285 283 281 281 282 280 278 277 278 278 278 276 275 275 275 275 275 275 276 276 276 275 275
283 283 284 284 285 285 285 285 286 286 287 287 287 287 286 285 284 284 283 282 281 279 278 279 279 279 278 278 276 276 275 274 273 273 273 274 274 275
282 284 284 285 285 285 285 285 285 285 286 287 287 287 286 285 284 284 284 284 282 281 279 279 279 278 278 278 278 277 275 273 272 271 272 272 273 274
282 283 283 283 284 285 285 285 285 285 285 286 286 285 285 285 286 286 286 284 283 282 281 280 279 279 279 279 276 276 275 273 272 271 271 271 272 272
283 284 284 284 285 285 285 284 284 284 284 284 284 285 285 286 287 286 284 283 283 282 281 280 280 279 278 278 277 276 276 275 273 272 272 271 271 272
283 284 285 285 286 286 286 285 284 283 283 284 285 287 287 287 287 286 285 285 284 282 281 280 279 278 277 277 276 277 276 275 274 273 272 272 272 271
284 286 287 286 286 287 287 286 285 285 285 286 288 289 289 289 287 286 286 285 285 283 281 279 279 279 278 277 278 278 277 274 273 272 272 273 272 272
286 287 288 286 286 287 287 287 287 287 287 288 288 289 290 291 290 288 287 286 285 283 282 279 279 279 278 276 276 277 275 273 272 272 271 271 271 271